Regional Weather Roundup
Issued by NWS Jackson, KY

Home | Current Version | Previous Version | Graphics & Text | Print | Product List | Glossary On
Versions: 1 2 3 4 5 6 7 8 9 10 11 12 13 14 15 16 17 18 19 20 21 22 23 24 25 26 27 28 29 30 31 32 33 34 35 36 37 38 39 40 41 42 43 44 45 46 47 48 49 50
000
ASUS43 KJKL 291510
RWRJKL

EAST KENTUCKY HOURLY WEATHER ROUNDUP
NATIONAL WEATHER SERVICE JACKSON KY
1100 AM EDT FRI APR 29 2016

NOTE: "FAIR" INDICATES FEW OR NO CLOUDS BELOW 12,000 FEET WITH
NO SIGNIFICANT WEATHER AND/OR OBSTRUCTIONS TO VISIBILITY.

* THESE REPORTS ARE NOT UNDER NWS QUALITY CONTROL AND MAY NOT
  REPORT WEATHER SUCH AS PRECIPITATION AND FOG.

KYZ079-080-083-085-087-088-110-112-115-119-120-291600
...EASTERN KENTUCKY...

CITY           SKY/WX    TMP DP  RH WIND       PRES   REMARKS
JACKSON        SUNNY     68  50  52 CALM      30.05R
LONDON         SUNNY     68  53  58 VRB3      30.05S
SOMERSET*      CLOUDY    68  54  60 CALM      30.06F
MONTICELLO*    SUNNY     69  56  62 N10       30.07S
WILLIAMSBURG*  SUNNY     66  54  63 CALM      30.05F
MIDDLESBORO*   SUNNY     71  56  57 CALM      30.06F
HARLAN APT*      N/A     68  54  60 CALM      30.07R
HAZARD APT*    SUNNY     70  52  52 SW5       30.05R
BLACK MTN*       N/A     63  46  55 N3          N/A
PIKE CO APT*     N/A     67  54  62 CALM      30.06R
BIG SANDY APT* SUNNY     67  54  62 CALM      30.04R
MOREHEAD APT*  SUNNY     66  55  68 VRB6G12   30.05S
$$

KYZ035-036-041-042-044-050-067-078-099-291600
...CENTRAL KENTUCKY...

CITY           SKY/WX    TMP DP  RH WIND       PRES   REMARKS
MT STERLING*   MOSUNNY   64  54  68 NW8       30.06S
FLEMING/MASON* PTSUNNY   63  56  78 W9        30.04F
DANVILLE*      SUNNY     64  54  68 CALM      30.06F
RICHMOND*      SUNNY     64  54  68 W5        30.06R
LEXINGTON      CLOUDY    65  51  60 W7        30.05F
FRANKFORT      SUNNY     65  47  52 CALM      30.04S
LOUISVILLE     CLOUDY    66  44  45 N6        30.06R
LEBANON*         N/A     64  54  68 W3        30.06S
BOWLING GREEN  SUNNY     69  56  62 NE9       30.03F
$$

KYZ091>093-OHZ055-061-077-WVZ005-015-034-035-042-291600
...SOUTHERN OHIO/WEST VIRGINIA...

CITY           SKY/WX    TMP DP  RH WIND       PRES   REMARKS
COVINGTON      PTSUNNY   61  51  70 W6        30.03R
COLUMBUS       CLOUDY    50  47  89 W8        30.02R
DAYTON         CLOUDY    54  49  83 N5        30.04R
WILMINGTON     CLOUDY    57  51  80 NW9       30.01R
HUNTINGTON       N/A     69  51  52 W10       30.00S
CHARLESTON       N/A     67  57  70 CALM      29.99F
PINEVILLE*       N/A     68  47  46 MISG      30.08S
BECKLEY          N/A     65  47  52 NW13      30.02F
$$

VAZ002-007-008-TNZ017-027-036-066-071-291600
...SOUTHWEST VIRGINIA/EAST TENNESSEE...

CITY           SKY/WX    TMP DP  RH WIND       PRES   REMARKS
WISE*            N/A     68  36  30 W8G20     30.10R
BRISTOL        MOSUNNY   71  51  49 VRB5      30.06S
MORRISTOWN*    SUNNY     73  52  46 VRB3      30.07R
KNOXVILLE      MOSUNNY   75  49  39 NE7       30.05R
OAK RIDGE      SUNNY     74  52  46 VRB5      30.06R
CROSSVILLE     SUNNY     73  45  36 VRB3      30.08F
NASHVILLE      CLOUDY    73  50  44 SE8       30.02F
$$

...KEY TO REMARKS...
VSB - VISIBILITY IN MILES
WCI - WIND CHILL INDEX
HX  - HEAT INDEX

$$



USA.gov is the U.S. government's official web portal to all federal, state and local government web resources and services.